Stockton, CA

8:43 AM PDT on August 18, 2017 (GMT -0700)
Stockton Metro

Weather History for KSCK - November, 2011

Change the Weather History Date:

Tuesday, November 22, 2011

  Actual Average Record
Temperature  
Mean Temperature 50 °F -  
Max Temperature 60 °F 61 °F 76 °F (1959)
Min Temperature 39 °F 40 °F 31 °F (1956)
Degree Days  
Heating Degree Days 15 14  
Month to date heating degree days 286 235  
Since 1 July heating degree days 354 332  
Cooling Degree Days 0 0  
Month to date cooling degree days 0 0  
Year to date cooling degree days 1191 1320  
Moisture  
Dew Point 43 °F    
Average Humidity 77    
Maximum Humidity 100    
Minimum Humidity 53    
Precipitation  
Precipitation 0.00 in 0.06 in 0.39 in (1978)
Month to date precipitation 0.75 1.21  
Year to date precipitation 9.95 11.36  
Since 1 July precipitation 1.48  
Snow  
Snow 0.00 in - 0.00 in (2001)
Month to date snowfall 0.0  
Since 1 July snowfall 0.0  
Since 1 September snowfall 0.0  
Snow Depth -    
Sea Level Pressure  
Sea Level Pressure 30.22 in    
Wind  
Wind Speed 4 mph (SE)    
Max Wind Speed 10 mph    
Max Gust Speed 14 mph    
Visibility 4 miles    
Events Fog    
T = Trace of Precipitation, MM = Missing Value Source: NWS Daily Summary

Daily Weather History Graph

Daily Weather History Graph

Search for Another Location

Airport or City:

Trip Planner

Search our weather history database for the weather conditions in past years. The results will help you decide how hot, cold, wet, or windy it might be!

Date:

Astronomy

Nov. 22, 2011 Rise Set
Actual Time 6:52 AM PST 4:49 PM PST
Civil Twilight 6:24 AM PST 5:17 PM PST
Nautical Twilight 5:52 AM PST 5:49 PM PST
Astronomical Twilight 5:20 AM PST 6:21 PM PST
Moon 3:51 AM PST (11/22) 2:50 PM PST (11/22)
Length of Visible Light 10h 53m
Length of Day
9h 56m
Waning Crescent, 9% of the Moon is Illuminated
Nov 22
Waning Crescent
Nov 24
New
Dec 2
First Quarter
Dec 10
Full
Dec 17
Last Quarter

Hourly Weather History & Observations

Time (PST) Temp. Windchill Dew Point Humidity Pressure Visibility Wind Dir Wind Speed Gust Speed Precip Events Conditions
12:11 AM 41.0 °F 39.0 °F 41.0 °F 100% 30.26 in 2.0 mi SSE 3.5 mph - N/A   Clear
12:28 AM 41.0 °F - 41.0 °F 100% 30.26 in 1.8 mi Calm Calm - N/A   Clear
12:55 AM 41.0 °F 38.0 °F 41.0 °F 100% 30.26 in 1.5 mi SE 4.6 mph - N/A   Clear
1:53 AM 39.2 °F - 39.2 °F 100% 30.28 in 0.8 mi Calm Calm - N/A   Mist
1:55 AM 39.0 °F - 39.0 °F 100% 30.28 in 0.8 mi Calm Calm - N/A   Mist
1:59 AM 39.2 °F - 39.2 °F 100% 30.28 in 1.0 mi Calm Calm - N/A   Clear
2:15 AM 39.2 °F 37.0 °F 39.2 °F 100% 30.28 in 0.8 mi ENE 3.5 mph - N/A   Mist
2:33 AM 39.2 °F 35.0 °F 39.2 °F 100% 30.28 in 0.2 mi East 5.8 mph - N/A Fog Fog
2:55 AM 41.0 °F 39.0 °F 41.0 °F 100% 30.28 in 0.2 mi East 3.5 mph - N/A Fog Fog
3:55 AM 42.1 °F 39.2 °F 42.1 °F 100% 30.27 in 0.2 mi ESE 4.6 mph - N/A Fog Fog
4:55 AM 42.1 °F 37.7 °F 42.1 °F 100% 30.27 in 0.2 mi ESE 6.9 mph - N/A Fog Fog
5:55 AM 42.1 °F 37.7 °F 42.1 °F 100% 30.27 in 0.2 mi SSE 6.9 mph - N/A Fog Fog
6:55 AM 42.8 °F 40.1 °F 42.8 °F 100% 30.27 in 0.2 mi SE 4.6 mph - N/A Fog Fog
7:55 AM 43.0 °F 39.5 °F 43.0 °F 100% 30.29 in 0.2 mi SE 5.8 mph - N/A Fog Fog
8:33 AM 44.6 °F 41.4 °F 44.6 °F 100% 30.30 in 0.2 mi SE 5.8 mph - N/A Fog Fog
8:55 AM 44.1 °F 40.1 °F 44.1 °F 100% 30.30 in 0.2 mi SE 6.9 mph - N/A Fog Fog
9:25 AM 44.6 °F 41.4 °F 44.6 °F 100% 30.30 in 0.5 mi SE 5.8 mph - N/A Fog Fog
9:55 AM 46.0 °F 42.5 °F 46.0 °F 100% 30.29 in 1.2 mi SE 6.9 mph - N/A   Overcast
10:55 AM 48.9 °F - 48.0 °F 97% 30.27 in 4.0 mi SSE 5.8 mph - N/A   Partly Cloudy
11:55 AM 55.0 °F - 46.9 °F 74% 30.24 in 7.0 mi Calm Calm - N/A   Clear
12:55 PM 57.9 °F - 46.9 °F 67% 30.20 in 9.0 mi South 5.8 mph - N/A   Clear
1:55 PM 59.0 °F - 44.1 °F 58% 30.17 in 10.0 mi SSE 8.1 mph - N/A   Clear
2:55 PM 59.0 °F - 43.0 °F 55% 30.15 in 10.0 mi SSE 9.2 mph - N/A   Clear
3:55 PM 59.0 °F - 41.0 °F 51% 30.14 in 10.0 mi SSE 6.9 mph - N/A   Clear
4:55 PM 55.0 °F - 44.1 °F 67% 30.14 in 10.0 mi SSE 4.6 mph - N/A   Clear
5:55 PM 52.0 °F - 44.1 °F 74% 30.13 in 10.0 mi Calm Calm - N/A   Clear
6:55 PM 50.0 °F - 44.1 °F 80% 30.12 in 10.0 mi ESE 3.5 mph - N/A   Clear
7:55 PM 48.9 °F - 44.1 °F 83% 30.12 in 8.0 mi Calm Calm - N/A   Clear
8:55 PM 46.0 °F - 42.1 °F 86% 30.12 in 8.0 mi Calm Calm - N/A   Clear
9:55 PM 44.1 °F 41.5 °F 41.0 °F 89% 30.13 in 6.0 mi East 4.6 mph - N/A   Clear
10:55 PM 44.6 °F 40.7 °F 42.8 °F 93% 30.12 in 5.0 mi East 6.9 mph - N/A   Clear
11:55 PM 44.1 °F 40.1 °F 42.1 °F 93% 30.09 in 4.0 mi ESE 6.9 mph - N/A   Clear